Location: Asheville, NC
(35.6000°N, 82.5500°W)
Time: 16:19:41
(UTC-05:00)

XW-2D - Pass Details

Date: 14 February 2018
Orbit: 509 x 531 km, 97.5° (Epoch: 21 February)

Event Time Altitude Azimuth Distance (km) Brightness Sun altitude
Rises 06:07:21 0° 20° (NNE) 2,622 ? -14.9°
Reaches altitude 10° 06:09:33 10° 28° (NNE) 1,734 ? -14.5°
Maximum altitude 06:13:04 39° 99° (E) 773 ? -13.8°
Drops below altitude 10° 06:16:35 10° 169° (S) 1,731 ? -13.1°
Sets 06:18:46 0° 177° (S) 2,617 ? -12.6°
